Regional Weather Roundup
Issued by NWS Green Bay, WI

Home | Current Version | Previous Version | Graphics & Text | Print | Product List | Glossary Off
Versions: 1 2 3 4 5 6 7 8 9 10 11 12 13 14 15 16 17 18 19 20 21 22 23 24 25 26 27 28 29 30 31 32 33 34 35 36 37 38 39 40 41 42 43 44 45 46 47 48 49 50

000
ASUS43 KGRB 231259
RWRGRB

NORTH-CENTRAL AND NORTHEAST WISCONSIN REGIONAL WEATHER ROUNDUP
NATIONAL WEATHER SERVICE GREEN BAY WI
800 AM CDT SAT AUG 23 2014

WIZ005-009-010>012-018-019-231400-
NORTH CENTRAL WISCONSIN

CITY           SKY/WX    TMP DP  RH WIND       PRES   REMARKS
IRONWOOD       NOT AVBL
MANITOWISH WTR NOT AVBL
ARBOR VITAE    NOT AVBL
EAGLE RIVER    NOT AVBL
LAND O LAKES   NOT AVBL
RHINELANDER    CLOUDY    69  68  96 CALM      30.05S FOG
PHILLIPS       CLOUDY    65  65 100 NE3       30.04R FOG
ANTIGO         NOT AVBL
TOMAHAWK       NOT AVBL
MERRILL        NOT AVBL
$$

WIZ013-073-231400-
NORTHEAST WISCONSIN

CITY           SKY/WX    TMP DP  RH WIND       PRES   REMARKS
IRON MOUNTAIN  CLOUDY    68  66  93 CALM      30.03F FOG
MARINETTE      CLOUDY    70  66  88 SE6       30.02R
$$

WIZ017-030-035>037-045-231400-
CENTRAL WISCONSIN

CITY           SKY/WX    TMP DP  RH WIND       PRES   REMARKS
MEDFORD        NOT AVBL
WAUSAU         FOG       70  69  97 E5        30.01R VSB 1/2
MOSINEE        FOG       70  70 100 E3        30.02S VSB 1/4
MARSHFIELD     FOG       71  70  96 E6        30.00F VSB 1/2
WISC RAPIDS    FOG       71  70  96 E7        30.00F VSB 1/2
STEVENS POINT  NOT AVBL
WAUPACA        NOT AVBL
SHAWANO        FOG       70  68  93 NE5       30.03R VSB 1/2
CLINTONVILLE   NOT AVBL
$$

WIZ038-039-048-051-231400-
FOX VALLEY

CITY           SKY/WX    TMP DP  RH WIND       PRES   REMARKS
NWS GREEN BAY  CLOUDY    70  68  93 E3        30.02R FOG
APPLETON       FOG       70  68  94 VRB3      30.03R VSB 1/4
OSHKOSH        CLOUDY    73  71  93 S3        30.00R FOG
FOND DU LAC    CLOUDY    71  69  93 S7        30.01R FOG
$$

WIZ022-050-052-231400-
EAST CENTRAL WISCONSIN

CITY           SKY/WX    TMP DP  RH WIND       PRES   REMARKS
STURGEON BAY   MOSUNNY   68  64  88 E8        30.04R
MANITOWOC      NOT AVBL
SHEBOYGAN      CLOUDY    70  68  93 S5        30.03R
$$

LMZ563-521-522-541>543-231400-
LAKESHORE

STATION/POSITION TIME  TEMP    WIND        PRES    VSBY  WAVE
                       AIR SEA DIR/SP/G                  HT/PER
                 (UTC) (F)     (DEG/KT/KT) (MB)    (MI)  (FT/S)
SHEBOYGAN LKSHOR 1200   68 66   CALM  /  1 1016.0R
KEWAUNEE LKSHORE 1200   68      90/  3/  4 1015.5R
ALGOMA MARINA    1200          150/  3/  5   N/A
NORTHPORT PIER   1200   67     150/  6/  8 1016.9S
N MID LAKE BUOY  1200   67 65  120/  8/  8 1016.6R         0
S GREEN BAY BUOY 1200   70     VRB  4      1017.2R
CHAMBERS ISLAND  1200   69     100/  3/  5 1016.6S
MENOMINEE LKSHOR 1200   69      90/  8/  9 1017.0R
$$



USA.gov is the U.S. government's official web portal to all federal, state and local government web resources and services.